Friday Harbor, WA
on Sunday, January 13, 2013

Sunday
Previous Day Next Day
Daily Summary
 ActualAverageRecord
Temperature
Mean Temperature °F °F  
Max Temperature 36°F 43°F 53°F (2004)
Min Temperature 25°F 35°F 23°F (2007)
Degree Days
Heating Degree Days 34    
Moisture
Dew Point 27°F   
Average Humidity 79    
Maximum Humidity 96    
Minimum Humidity 70    
Precipitation
Precipitation 0.00 in in in ()
Wind
Wind Speed 1 mph   
Max Wind Speed 8 mph   
Max Gust Speed mph   
Visibility 10 miles   
Events     
Averages and records for this station are not official NWS values.
Key: T is trace of precipitation, MM is missing value
Source: NWS Daily Summary
Seasonal Weather Averages
Time(PST)TemperatureDew PointHumidity Pressure Visibility Wind DirectionWind SpeedGust SpeedPrecipitationEvents Conditions
12:53 AM 30.0°F 28.0°F 92% 30.47 in 10.0 miles Calm Calm - N/A   Overcast
1:53 AM 27.0°F 25.0°F 92% 30.46 in 10.0 miles Calm Calm - N/A   Clear
2:53 AM 27.0°F 24.1°F 89% 30.46 in 10.0 miles Calm Calm - N/A   Clear
3:53 AM 25.0°F 23.0°F 92% 30.46 in 10.0 miles Calm Calm - N/A   Clear
4:53 AM 27.0°F 24.1°F 89% 30.47 in 10.0 miles Calm Calm - N/A   Clear
5:53 AM 25.0°F 24.1°F 96% 30.46 in 10.0 miles Calm Calm - N/A   Clear
6:53 AM 27.0°F 25.0°F 92% 30.48 in 10.0 miles Calm Calm - N/A   Mostly Cloudy
7:53 AM 27.0°F 25.0°F 92% 30.48 in 10.0 miles Calm Calm - N/A   Scattered Clouds
8:53 AM 26.1°F 25.0°F 96% 30.50 in 10.0 miles Calm Calm - N/A   Mostly Cloudy
9:53 AM 32.0°F 28.9°F 88% 30.49 in 10.0 miles Calm Calm - N/A   Overcast
10:53 AM 33.1°F 28.0°F 82% 30.49 in 10.0 miles Calm Calm - N/A   Overcast
11:53 AM 34.0°F 27.0°F 75% 30.49 in 10.0 miles Calm Calm - N/A   Overcast
12:53 PM 34.0°F 28.0°F 79% 30.47 in 10.0 miles Calm Calm - N/A   Overcast
1:53 PM 36.0°F 27.0°F 70% 30.47 in 10.0 miles Calm Calm - N/A   Overcast
2:02 PM 35.6°F 28.4°F 75% 30.46 in 10.0 miles SSE 4.6 mph - N/A   Overcast
2:53 PM 35.1°F 28.0°F 76% 30.46 in 10.0 miles Variable 3.5 mph - N/A   Overcast
3:53 PM 36.0°F 27.0°F 70% 30.48 in 10.0 miles Calm Calm - N/A   Overcast
4:53 PM 34.0°F 27.0°F 75% 30.47 in 10.0 miles Calm Calm - N/A   Overcast
5:53 PM 34.0°F 28.0°F 79% 30.48 in 10.0 miles Calm Calm - N/A   Overcast
6:53 PM 34.0°F 27.0°F 75% 30.46 in 10.0 miles Calm Calm - N/A   Overcast
7:00 PM 33.8°F 26.6°F 75% 30.46 in 10.0 miles Calm Calm - N/A   Overcast
7:07 PM 35.6°F 26.6°F 70% 30.47 in 10.0 miles Calm Calm - N/A   Overcast
7:53 PM 34.0°F 28.0°F 79% 30.48 in 10.0 miles Calm Calm - N/A   Overcast
8:53 PM 35.1°F 27.0°F 72% 30.49 in 10.0 miles ESE 4.6 mph - N/A   Overcast
9:02 PM 35.6°F 26.6°F 70% 30.48 in 10.0 miles ESE 4.6 mph - N/A   Overcast
9:33 PM 35.6°F 26.6°F 70% 30.47 in 10.0 miles ESE 8.1 mph - N/A   Overcast
9:53 PM 35.1°F 27.0°F 72% 30.49 in 10.0 miles East 4.6 mph - N/A   Overcast
10:43 PM 35.6°F 26.6°F 70% 30.49 in 10.0 miles SE 6.9 mph - N/A   Overcast
10:53 PM 35.1°F 27.0°F 72% 30.49 in 10.0 miles ESE 5.8 mph - N/A   Overcast
11:01 PM 35.6°F 26.6°F 70% 30.49 in 10.0 miles SE 6.9 mph - N/A   Overcast
11:24 PM 35.6°F 26.6°F 70% 30.48 in 10.0 miles ESE 8.1 mph - N/A   Overcast
11:53 PM 36.0°F 28.0°F 73% 30.48 in 10.0 miles East 6.9 mph - N/A   Overcast
Moon Phase
Jan. 13 Jan. 18 Jan. 26 Feb. 03 Feb. 10
Sunrise:08:00 AM (PST) Moon Rise:08:47 AM (PST)1/13
Sunset:04:42 PM (PST) Moon Set:07:44 PM (PST)1/13

Copyright © 2014 The Weather Underground, Inc.